Station Historical Data
Daily Summary for June 30, 2017 Units:  English    Metric   Both
« Previous Day
Next Day »
Daily Weekly Monthly Yearly Custom
  High: Low: Average:
Temperature: 84.7 °F 64.7 °F 73.8 °F
Dew Point: 62.0 °F 53.3 °F 57.1 °F
Humidity: 78 % 41 % 57 %
Wind Speed: 8.0 mph 0.0 mph 0.7 mph
Wind Gust: 9.0 mph - -
Wind:- - SW
Pressure: 29.90 in 29.83 in -
Precipitation: 0.00 in    
Historical Graphs
 
 
Tabular Data for June 30, 2017
Time Temperature Dew Point Pressure Wind Wind Speed Wind Gust Humidity Rainfall Rate (Hourly) solar
00:04 69.4 °F 53.5 °F 29.90 in Calm   3.0 mph 57 % 0.00 in 0.00 W/m2
00:09 69.4 °F 54.0 °F 29.90 in NE 1.0 mph 1.0 mph 58 % 0.00 in 0.00 W/m2
00:14 69.3 °F 53.9 °F 29.89 in Calm   1.0 mph 58 % 0.00 in 0.00 W/m2
00:19 69.3 °F 54.4 °F 29.89 in Calm     59 % 0.00 in 0.00 W/m2
00:24 69.2 °F 54.3 °F 29.89 in Calm   3.0 mph 59 % 0.00 in 0.00 W/m2
00:29 69.1 °F 54.2 °F 29.89 in Calm   5.0 mph 59 % 0.00 in 0.00 W/m2
00:34 69.1 °F 54.7 °F 29.89 in Calm   1.0 mph 60 % 0.00 in 0.00 W/m2
00:39 69.0 °F 54.5 °F 29.89 in Calm   4.0 mph 60 % 0.00 in 0.00 W/m2
00:44 68.9 °F 54.5 °F 29.89 in Calm   1.0 mph 60 % 0.00 in 0.00 W/m2
00:49 68.8 °F 54.4 °F 29.89 in ENE 1.0 mph 2.0 mph 60 % 0.00 in 0.00 W/m2
00:54 68.8 °F 54.4 °F 29.89 in Calm   5.0 mph 60 % 0.00 in 0.00 W/m2
00:59 68.8 °F 54.4 °F 29.89 in Calm   1.0 mph 60 % 0.00 in 0.00 W/m2
01:04 68.7 °F 54.3 °F 29.89 in Calm     60 % 0.00 in 0.00 W/m2
01:09 68.6 °F 54.2 °F 29.89 in Calm   4.0 mph 60 % 0.00 in 0.00 W/m2
01:14 68.6 °F 54.2 °F 29.89 in Calm   1.0 mph 60 % 0.00 in 0.00 W/m2
01:19 68.6 °F 54.2 °F 29.89 in Calm   1.0 mph 60 % 0.00 in 0.00 W/m2
01:24 68.5 °F 54.1 °F 29.89 in Calm   1.0 mph 60 % 0.00 in 0.00 W/m2
01:29 68.5 °F 54.1 °F 29.89 in Calm     60 % 0.00 in 0.00 W/m2
01:34 68.5 °F 54.1 °F 29.89 in Calm     60 % 0.00 in 0.00 W/m2
01:39 68.3 °F 54.3 °F 29.88 in Calm     61 % 0.00 in 0.00 W/m2
01:44 68.3 °F 54.3 °F 29.88 in Calm     61 % 0.00 in 0.00 W/m2
01:49 68.1 °F 54.2 °F 29.88 in Calm     61 % 0.00 in 0.00 W/m2
01:50 68.1 °F 54.2 °F 29.88 in Calm     61 % 0.00 in 0.00 W/m2
01:55 68.0 °F 54.1 °F 29.88 in Calm     61 % 0.00 in 0.00 W/m2
02:00 67.9 °F 54.0 °F 29.88 in Calm     61 % 0.00 in 0.00 W/m2
02:05 67.7 °F 53.8 °F 29.88 in Calm     61 % 0.00 in 0.00 W/m2
02:10 67.5 °F 54.0 °F 29.88 in Calm     62 % 0.00 in 0.00 W/m2
02:15 67.4 °F 53.9 °F 29.88 in Calm     62 % 0.00 in 0.00 W/m2
02:20 67.4 °F 53.9 °F 29.88 in Calm     62 % 0.00 in 0.00 W/m2
02:25 67.4 °F 53.9 °F 29.88 in Calm     62 % 0.00 in 0.00 W/m2
02:30 67.3 °F 54.3 °F 29.88 in Calm   1.0 mph 63 % 0.00 in 0.00 W/m2
02:35 67.2 °F 54.2 °F 29.88 in Calm     63 % 0.00 in 0.00 W/m2
02:40 67.2 °F 54.2 °F 29.88 in Calm     63 % 0.00 in 0.00 W/m2
02:45 67.1 °F 54.1 °F 29.87 in Calm     63 % 0.00 in 0.00 W/m2
02:50 67.0 °F 54.0 °F 29.87 in Calm     63 % 0.00 in 0.00 W/m2
02:56 67.0 °F 54.0 °F 29.87 in Calm   1.0 mph 63 % 0.00 in 0.00 W/m2
03:01 66.9 °F 53.9 °F 29.87 in Calm     63 % 0.00 in 0.00 W/m2
03:06 66.8 °F 54.2 °F 29.87 in Calm   1.0 mph 64 % 0.00 in 0.00 W/m2
03:11 66.8 °F 54.2 °F 29.87 in Calm     64 % 0.00 in 0.00 W/m2
03:16 66.8 °F 54.2 °F 29.87 in Calm     64 % 0.00 in 0.00 W/m2
03:21 66.7 °F 54.2 °F 29.87 in Calm     64 % 0.00 in 0.00 W/m2
03:26 66.7 °F 54.2 °F 29.87 in Calm     64 % 0.00 in 0.00 W/m2
03:31 66.6 °F 54.1 °F 29.87 in Calm     64 % 0.00 in 0.00 W/m2
03:36 66.6 °F 54.1 °F 29.87 in Calm     64 % 0.00 in 0.00 W/m2
03:41 66.6 °F 54.1 °F 29.87 in Calm     64 % 0.00 in 0.00 W/m2
03:46 66.6 °F 54.1 °F 29.87 in Calm     64 % 0.00 in 0.00 W/m2
03:51 66.6 °F 54.1 °F 29.87 in Calm     64 % 0.00 in 0.00 W/m2
03:56 66.5 °F 54.0 °F 29.87 in Calm     64 % 0.00 in 0.00 W/m2
04:01 66.5 °F 54.0 °F 29.87 in Calm   1.0 mph 64 % 0.00 in 0.00 W/m2
04:06 66.4 °F 53.9 °F 29.87 in Calm   3.0 mph 64 % 0.00 in 0.00 W/m2
04:11 66.4 °F 53.9 °F 29.87 in Calm   3.0 mph 64 % 0.00 in 0.00 W/m2
04:16 66.3 °F 53.8 °F 29.87 in Calm   3.0 mph 64 % 0.00 in 0.00 W/m2
04:21 66.3 °F 53.8 °F 29.87 in Calm     64 % 0.00 in 0.00 W/m2
04:26 66.2 °F 53.7 °F 29.87 in Calm   3.0 mph 64 % 0.00 in 0.00 W/m2
04:31 66.1 °F 53.6 °F 29.87 in Calm   3.0 mph 64 % 0.00 in 0.00 W/m2
04:36 66.1 °F 53.6 °F 29.87 in Calm   2.0 mph 64 % 0.00 in 0.00 W/m2
04:41 66.0 °F 53.5 °F 29.87 in Calm     64 % 0.00 in 0.00 W/m2
04:46 65.9 °F 53.4 °F 29.87 in Calm     64 % 0.00 in 0.00 W/m2
04:51 65.9 °F 53.8 °F 29.88 in Calm     65 % 0.00 in 0.00 W/m2
04:56 65.8 °F 53.7 °F 29.88 in Calm     65 % 0.00 in 0.00 W/m2
05:01 65.7 °F 53.6 °F 29.87 in Calm     65 % 0.00 in 0.00 W/m2
05:06 65.7 °F 53.6 °F 29.88 in Calm     65 % 0.00 in 0.00 W/m2
05:11 65.6 °F 53.5 °F 29.88 in Calm     65 % 0.00 in 0.00 W/m2
05:16 65.5 °F 53.4 °F 29.87 in Calm     65 % 0.00 in 0.00 W/m2
05:21 65.5 °F 53.4 °F 29.88 in Calm     65 % 0.00 in 0.00 W/m2
05:26 65.4 °F 53.3 °F 29.88 in Calm     65 % 0.00 in 0.00 W/m2
05:31 65.3 °F 53.7 °F 29.88 in Calm     66 % 0.00 in 0.00 W/m2
05:36 65.2 °F 53.6 °F 29.88 in Calm     66 % 0.00 in 0.00 W/m2
05:41 65.1 °F 53.5 °F 29.88 in Calm     66 % 0.00 in 5.00 W/m2
05:46 65.1 °F 53.5 °F 29.88 in Calm     66 % 0.00 in 7.00 W/m2
05:51 65.0 °F 53.4 °F 29.88 in Calm     66 % 0.00 in 9.00 W/m2
05:56 64.9 °F 53.7 °F 29.88 in Calm     67 % 0.00 in 12.00 W/m2
06:01 64.9 °F 53.7 °F 29.88 in Calm     67 % 0.00 in 14.00 W/m2
06:06 64.8 °F 53.6 °F 29.88 in Calm     67 % 0.00 in 16.00 W/m2
06:11 64.8 °F 53.6 °F 29.89 in Calm     67 % 0.00 in 19.00 W/m2
06:16 64.8 °F 53.6 °F 29.89 in Calm     67 % 0.00 in 23.00 W/m2
06:21 64.7 °F 53.9 °F 29.89 in Calm     68 % 0.00 in 39.00 W/m2
06:26 64.7 °F 53.9 °F 29.89 in Calm     68 % 0.00 in 47.00 W/m2
06:31 64.7 °F 53.9 °F 29.89 in Calm     68 % 0.00 in 60.00 W/m2
06:36 64.7 °F 54.3 °F 29.89 in Calm     69 % 0.00 in 74.00 W/m2
06:41 64.7 °F 54.7 °F 29.89 in Calm     70 % 0.00 in 88.00 W/m2
06:46 64.7 °F 54.7 °F 29.89 in Calm     70 % 0.00 in 104.00 W/m2
06:51 64.7 °F 55.1 °F 29.90 in Calm     71 % 0.00 in 121.00 W/m2
06:56 64.7 °F 55.1 °F 29.89 in Calm     71 % 0.00 in 139.00 W/m2
06:59 64.7 °F 55.1 °F 29.90 in Calm     71 % 0.00 in 149.00 W/m2
07:04 64.7 °F 55.5 °F 29.90 in Calm     72 % 0.00 in 169.00 W/m2
07:09 64.7 °F 55.5 °F 29.89 in Calm     72 % 0.00 in 188.00 W/m2
07:14 64.7 °F 55.9 °F 29.90 in Calm     73 % 0.00 in 207.00 W/m2
07:19 64.8 °F 56.0 °F 29.90 in Calm     73 % 0.00 in 225.00 W/m2
07:24 64.8 °F 56.3 °F 29.90 in Calm     74 % 0.00 in 244.00 W/m2
07:29 64.9 °F 56.4 °F 29.89 in Calm     74 % 0.00 in 264.00 W/m2
07:34 64.9 °F 56.4 °F 29.89 in Calm     74 % 0.00 in 281.00 W/m2
07:39 65.0 °F 56.9 °F 29.90 in Calm     75 % 0.00 in 297.00 W/m2
07:44 65.1 °F 57.0 °F 29.90 in Calm     75 % 0.00 in 313.00 W/m2
07:49 65.2 °F 57.1 °F 29.90 in Calm     75 % 0.00 in 329.00 W/m2
07:54 65.4 °F 57.7 °F 29.90 in Calm     76 % 0.00 in 345.00 W/m2
07:59 65.5 °F 57.7 °F 29.90 in Calm     76 % 0.00 in 360.00 W/m2
08:04 65.6 °F 57.8 °F 29.90 in Calm     76 % 0.00 in 373.00 W/m2
08:09 65.8 °F 58.4 °F 29.90 in Calm     77 % 0.00 in 390.00 W/m2
08:14 66.0 °F 58.2 °F 29.90 in Calm     76 % 0.00 in 406.00 W/m2
08:19 66.3 °F 58.9 °F 29.90 in Calm     77 % 0.00 in 422.00 W/m2
08:25 66.7 °F 59.6 °F 29.90 in Calm     78 % 0.00 in 438.00 W/m2
08:30 67.0 °F 59.6 °F 29.90 in Calm     77 % 0.00 in 454.00 W/m2
08:35 67.2 °F 59.4 °F 29.90 in Calm     76 % 0.00 in 469.00 W/m2
08:40 67.4 °F 58.5 °F 29.90 in Calm     73 % 0.00 in 485.00 W/m2
08:45 67.7 °F 59.1 °F 29.90 in Calm     74 % 0.00 in 501.00 W/m2
08:50 67.9 °F 57.0 °F 29.90 in Calm     68 % 0.00 in 513.00 W/m2
08:55 68.2 °F 56.0 °F 29.90 in Calm     65 % 0.00 in 527.00 W/m2
09:00 68.6 °F 56.8 °F 29.90 in Calm     66 % 0.00 in 543.00 W/m2
09:05 69.2 °F 56.1 °F 29.90 in Calm     63 % 0.00 in 557.00 W/m2
09:10 69.6 °F 56.0 °F 29.90 in Calm     62 % 0.00 in 571.00 W/m2
09:15 70.1 °F 56.5 °F 29.90 in Calm     62 % 0.00 in 587.00 W/m2
09:20 70.6 °F 57.4 °F 29.90 in Calm     63 % 0.00 in 603.00 W/m2
09:25 71.1 °F 57.4 °F 29.90 in Calm     62 % 0.00 in 615.00 W/m2
09:30 71.4 °F 58.2 °F 29.89 in Calm     63 % 0.00 in 631.00 W/m2
09:35 71.7 °F 58.9 °F 29.89 in Calm     64 % 0.00 in 643.00 W/m2
09:40 72.0 °F 59.6 °F 29.89 in Calm     65 % 0.00 in 657.00 W/m2
09:45 72.2 °F 59.4 °F 29.89 in Calm     64 % 0.00 in 671.00 W/m2
09:50 72.7 °F 58.5 °F 29.89 in Calm   4.0 mph 61 % 0.00 in 684.00 W/m2
09:55 73.0 °F 59.2 °F 29.89 in Calm   3.0 mph 62 % 0.00 in 696.00 W/m2
10:00 73.4 °F 60.0 °F 29.89 in NE 1.0 mph 3.0 mph 63 % 0.00 in 710.00 W/m2
10:05 73.7 °F 58.5 °F 29.89 in Calm   2.0 mph 59 % 0.00 in 719.00 W/m2
10:10 74.0 °F 59.2 °F 29.89 in Calm   4.0 mph 60 % 0.00 in 729.00 W/m2
10:15 74.2 °F 59.0 °F 29.89 in NNE 2.0 mph 2.0 mph 59 % 0.00 in 742.00 W/m2
10:20 74.4 °F 59.2 °F 29.89 in Calm   2.0 mph 59 % 0.00 in 754.00 W/m2
10:25 74.6 °F 58.9 °F 29.89 in Calm   5.0 mph 58 % 0.00 in 765.00 W/m2
10:30 74.8 °F 59.0 °F 29.89 in NNE 1.0 mph 3.0 mph 58 % 0.00 in 777.00 W/m2
10:35 75.0 °F 59.7 °F 29.89 in North 2.0 mph 5.0 mph 59 % 0.00 in 788.00 W/m2
10:40 75.3 °F 59.5 °F 29.89 in NNW 3.0 mph 4.0 mph 58 % 0.00 in 796.00 W/m2
10:45 75.6 °F 60.3 °F 29.89 in WSW 4.0 mph 7.0 mph 59 % 0.00 in 805.00 W/m2
10:50 75.9 °F 60.1 °F 29.89 in West 3.0 mph 7.0 mph 58 % 0.00 in 814.00 W/m2
10:55 76.2 °F 59.4 °F 29.89 in WSW 2.0 mph 7.0 mph 56 % 0.00 in 823.00 W/m2
11:00 76.4 °F 59.6 °F 29.89 in Calm   5.0 mph 56 % 0.00 in 835.00 W/m2
11:05 76.7 °F 59.8 °F 29.89 in Calm   1.0 mph 56 % 0.00 in 844.00 W/m2
11:10 76.9 °F 59.5 °F 29.89 in West 3.0 mph 5.0 mph 55 % 0.00 in 851.00 W/m2
11:15 77.1 °F 59.2 °F 29.90 in West 5.0 mph 7.0 mph 54 % 0.00 in 860.00 W/m2
11:19 77.2 °F 59.3 °F 29.89 in Calm   7.0 mph 54 % 0.00 in 865.00 W/m2
11:24 77.5 °F 60.1 °F 29.90 in West 3.0 mph 4.0 mph 55 % 0.00 in 870.00 W/m2
11:29 77.6 °F 59.1 °F 29.90 in West 4.0 mph 5.0 mph 53 % 0.00 in 877.00 W/m2
11:34 77.8 °F 59.3 °F 29.90 in West 6.0 mph 6.0 mph 53 % 0.00 in 884.00 W/m2
11:39 77.9 °F 58.9 °F 29.89 in Calm   3.0 mph 52 % 0.00 in 891.00 W/m2
11:44 78.3 °F 59.2 °F 29.90 in Calm   6.0 mph 52 % 0.00 in 898.00 W/m2
11:46 78.4 °F 58.8 °F 29.90 in Calm     51 % 0.00 in 898.00 W/m2
11:51 78.7 °F 59.6 °F 29.90 in WSW 2.0 mph 3.0 mph 52 % 0.00 in 905.00 W/m2
11:56 79.1 °F 59.4 °F 29.90 in SW 6.0 mph 7.0 mph 51 % 0.00 in 909.00 W/m2
12:01 79.4 °F 59.7 °F 29.90 in SSW 3.0 mph 3.0 mph 51 % 0.00 in 914.00 W/m2
12:06 79.6 °F 61.0 °F 29.90 in SW 5.0 mph 6.0 mph 53 % 0.00 in 918.00 W/m2
12:11 80.0 °F 61.3 °F 29.90 in SW 5.0 mph 8.0 mph 53 % 0.00 in 923.00 W/m2
12:16 80.4 °F 61.7 °F 29.90 in West 1.0 mph 4.0 mph 53 % 0.00 in 925.00 W/m2
12:21 80.7 °F 61.5 °F 29.89 in West 1.0 mph 4.0 mph 52 % 0.00 in 928.00 W/m2
12:26 80.7 °F 62.0 °F 29.89 in WSW 3.0 mph 3.0 mph 53 % 0.00 in 926.00 W/m2
12:31 80.9 °F 61.1 °F 29.90 in Calm   2.0 mph 51 % 0.00 in 933.00 W/m2
12:36 80.8 °F 61.0 °F 29.90 in WSW 1.0 mph 6.0 mph 51 % 0.00 in 933.00 W/m2
12:41 80.9 °F 61.6 °F 29.89 in Calm     52 % 0.00 in 935.00 W/m2
12:46 81.1 °F 60.7 °F 29.89 in SW 4.0 mph 8.0 mph 50 % 0.00 in 935.00 W/m2
12:51 81.3 °F 60.3 °F 29.89 in Calm   4.0 mph 49 % 0.00 in 937.00 W/m2
12:56 81.7 °F 60.1 °F 29.89 in South 6.0 mph 7.0 mph 48 % 0.00 in 940.00 W/m2
13:01 81.9 °F 60.9 °F 29.89 in Calm     49 % 0.00 in 940.00 W/m2
13:06 82.6 °F 60.9 °F 29.90 in Calm     48 % 0.00 in 939.00 W/m2
13:11 83.2 °F 59.7 °F 29.90 in WSW 5.0 mph 6.0 mph 45 % 0.00 in 939.00 W/m2
13:16 83.3 °F 59.8 °F 29.89 in SW 1.0 mph 8.0 mph 45 % 0.00 in 939.00 W/m2
13:21 83.4 °F 59.8 °F 29.90 in SW 8.0 mph 9.0 mph 45 % 0.00 in 932.00 W/m2
13:26 83.7 °F 60.1 °F 29.90 in SW 4.0 mph 6.0 mph 45 % 0.00 in 937.00 W/m2
13:31 84.1 °F 59.2 °F 29.89 in Calm     43 % 0.00 in 935.00 W/m2
13:36 84.5 °F 60.8 °F 29.89 in SSW 5.0 mph 7.0 mph 45 % 0.00 in 939.00 W/m2
13:41 84.7 °F 60.4 °F 29.89 in Calm     44 % 0.00 in 925.00 W/m2
13:46 84.3 °F 60.0 °F 29.89 in Calm   2.0 mph 44 % 0.00 in 916.00 W/m2
13:51 83.8 °F 59.6 °F 29.89 in West 4.0 mph 4.0 mph 44 % 0.00 in 933.00 W/m2
13:56 83.2 °F 59.7 °F 29.89 in Calm   1.0 mph 45 % 0.00 in 923.00 W/m2
14:01 82.9 °F 59.4 °F 29.89 in West 1.0 mph 4.0 mph 45 % 0.00 in 879.00 W/m2
14:06 82.7 °F 59.2 °F 29.89 in West 3.0 mph 6.0 mph 45 % 0.00 in 919.00 W/m2
14:11 83.0 °F 59.5 °F 29.89 in Calm   2.0 mph 45 % 0.00 in 923.00 W/m2
14:16 83.6 °F 58.8 °F 29.89 in SSW 4.0 mph 7.0 mph 43 % 0.00 in 902.00 W/m2
14:21 84.1 °F 59.2 °F 29.88 in Calm   5.0 mph 43 % 0.00 in 858.00 W/m2
14:26 84.2 °F 59.3 °F 29.89 in Calm   6.0 mph 43 % 0.00 in 907.00 W/m2
14:32 84.0 °F 59.8 °F 29.88 in West 4.0 mph 4.0 mph 44 % 0.00 in 900.00 W/m2
14:37 83.6 °F 58.1 °F 29.88 in Calm   3.0 mph 42 % 0.00 in 896.00 W/m2
14:42 83.3 °F 59.1 °F 29.88 in Calm   3.0 mph 44 % 0.00 in 884.00 W/m2
14:47 83.2 °F 59.0 °F 29.88 in Calm   4.0 mph 44 % 0.00 in 875.00 W/m2
14:52 83.4 °F 59.2 °F 29.88 in Calm   1.0 mph 44 % 0.00 in 863.00 W/m2
14:57 83.4 °F 58.6 °F 29.88 in WNW 1.0 mph 1.0 mph 43 % 0.00 in 853.00 W/m2
15:02 83.3 °F 58.5 °F 29.88 in Calm   3.0 mph 43 % 0.00 in 844.00 W/m2
15:07 83.2 °F 59.0 °F 29.88 in Calm   8.0 mph 44 % 0.00 in 833.00 W/m2
15:12 83.1 °F 59.0 °F 29.88 in WNW 1.0 mph 1.0 mph 44 % 0.00 in 824.00 W/m2
15:17 83.0 °F 58.9 °F 29.88 in Calm   3.0 mph 44 % 0.00 in 812.00 W/m2
15:22 83.1 °F 59.0 °F 29.88 in Calm     44 % 0.00 in 803.00 W/m2
15:27 83.1 °F 59.0 °F 29.88 in Calm   2.0 mph 44 % 0.00 in 756.00 W/m2
15:32 83.2 °F 58.4 °F 29.88 in Calm   5.0 mph 43 % 0.00 in 780.00 W/m2
15:37 83.3 °F 58.5 °F 29.88 in Calm     43 % 0.00 in 773.00 W/m2
15:42 83.3 °F 59.1 °F 29.87 in WNW 5.0 mph 6.0 mph 44 % 0.00 in 763.00 W/m2
15:47 83.3 °F 59.1 °F 29.87 in WNW 3.0 mph 7.0 mph 44 % 0.00 in 751.00 W/m2
15:52 83.3 °F 58.5 °F 29.87 in Calm   8.0 mph 43 % 0.00 in 740.00 W/m2
15:57 83.3 °F 58.5 °F 29.87 in West 4.0 mph 4.0 mph 43 % 0.00 in 731.00 W/m2
16:02 83.3 °F 57.8 °F 29.87 in West 4.0 mph 7.0 mph 42 % 0.00 in 717.00 W/m2
16:07 83.3 °F 59.1 °F 29.87 in West 4.0 mph 6.0 mph 44 % 0.00 in 703.00 W/m2
16:13 83.5 °F 58.7 °F 29.87 in Calm   8.0 mph 43 % 0.00 in 691.00 W/m2
16:18 83.6 °F 57.4 °F 29.86 in Calm   1.0 mph 41 % 0.00 in 680.00 W/m2
16:23 83.4 °F 58.6 °F 29.86 in Calm   1.0 mph 43 % 0.00 in 666.00 W/m2
16:28 83.3 °F 59.1 °F 29.86 in Calm     44 % 0.00 in 656.00 W/m2
16:33 83.2 °F 58.4 °F 29.86 in WSW 1.0 mph 2.0 mph 43 % 0.00 in 642.00 W/m2
16:38 83.2 °F 59.0 °F 29.86 in Calm   2.0 mph 44 % 0.00 in 629.00 W/m2
16:43 83.2 °F 59.0 °F 29.86 in Calm   2.0 mph 44 % 0.00 in 615.00 W/m2
16:48 83.2 °F 58.4 °F 29.86 in Calm     43 % 0.00 in 603.00 W/m2
16:53 83.1 °F 58.3 °F 29.86 in West 1.0 mph 4.0 mph 43 % 0.00 in 584.00 W/m2
16:58 83.1 °F 59.6 °F 29.86 in Calm   3.0 mph 45 % 0.00 in 570.00 W/m2
17:03 83.1 °F 59.0 °F 29.86 in West 1.0 mph 5.0 mph 44 % 0.00 in 555.00 W/m2
17:08 83.2 °F 59.0 °F 29.86 in WNW 2.0 mph 6.0 mph 44 % 0.00 in 541.00 W/m2
17:13 83.1 °F 58.3 °F 29.86 in Calm     43 % 0.00 in 527.00 W/m2
17:19 83.0 °F 58.2 °F 29.86 in Calm   6.0 mph 43 % 0.00 in 513.00 W/m2
17:24 82.9 °F 57.5 °F 29.85 in Calm   2.0 mph 42 % 0.00 in 497.00 W/m2
17:29 82.8 °F 56.7 °F 29.85 in Calm     41 % 0.00 in 483.00 W/m2
17:34 82.8 °F 58.0 °F 29.85 in Calm     43 % 0.00 in 469.00 W/m2
17:39 82.7 °F 58.0 °F 29.85 in Calm   4.0 mph 43 % 0.00 in 452.00 W/m2
17:44 82.7 °F 58.0 °F 29.84 in Calm     43 % 0.00 in 438.00 W/m2
17:49 82.7 °F 58.6 °F 29.84 in Calm     44 % 0.00 in 425.00 W/m2
17:54 82.6 °F 59.1 °F 29.84 in West 1.0 mph 1.0 mph 45 % 0.00 in 408.00 W/m2
17:59 82.5 °F 57.8 °F 29.84 in Calm     43 % 0.00 in 392.00 W/m2
18:04 82.4 °F 57.7 °F 29.84 in Calm   2.0 mph 43 % 0.00 in 374.00 W/m2
18:09 82.4 °F 58.3 °F 29.84 in Calm   2.0 mph 44 % 0.00 in 360.00 W/m2
18:14 82.3 °F 58.2 °F 29.84 in Calm     44 % 0.00 in 343.00 W/m2
18:19 82.2 °F 57.5 °F 29.84 in Calm   1.0 mph 43 % 0.00 in 329.00 W/m2
18:24 82.1 °F 58.7 °F 29.84 in Calm     45 % 0.00 in 311.00 W/m2
18:29 82.1 °F 59.3 °F 29.84 in West 3.0 mph 4.0 mph 46 % 0.00 in 294.00 W/m2
18:34 82.0 °F 58.6 °F 29.84 in Calm   2.0 mph 45 % 0.00 in 281.00 W/m2
18:39 81.9 °F 58.5 °F 29.84 in Calm   4.0 mph 45 % 0.00 in 264.00 W/m2
18:44 81.8 °F 58.4 °F 29.84 in Calm   5.0 mph 45 % 0.00 in 250.00 W/m2
18:49 81.7 °F 58.3 °F 29.84 in West 1.0 mph 3.0 mph 45 % 0.00 in 234.00 W/m2
18:54 81.6 °F 58.2 °F 29.84 in Calm   2.0 mph 45 % 0.00 in 218.00 W/m2
18:59 81.5 °F 58.8 °F 29.84 in West 1.0 mph 2.0 mph 46 % 0.00 in 202.00 W/m2
19:04 81.4 °F 58.0 °F 29.84 in Calm   5.0 mph 45 % 0.00 in 186.00 W/m2
19:09 81.2 °F 59.1 °F 29.84 in Calm   1.0 mph 47 % 0.00 in 171.00 W/m2
19:14 80.9 °F 59.4 °F 29.84 in West 1.0 mph 2.0 mph 48 % 0.00 in 155.00 W/m2
19:19 80.5 °F 59.0 °F 29.84 in Calm   4.0 mph 48 % 0.00 in 137.00 W/m2
19:24 80.2 °F 59.3 °F 29.84 in West 1.0 mph 1.0 mph 49 % 0.00 in 120.00 W/m2
19:29 79.7 °F 59.4 °F 29.84 in Calm   1.0 mph 50 % 0.00 in 102.00 W/m2
19:34 79.4 °F 59.2 °F 29.84 in Calm   1.0 mph 50 % 0.00 in 84.00 W/m2
19:39 78.9 °F 59.2 °F 29.84 in Calm   1.0 mph 51 % 0.00 in 70.00 W/m2
19:44 78.6 °F 60.1 °F 29.84 in Calm     53 % 0.00 in 56.00 W/m2
19:49 78.2 °F 59.7 °F 29.84 in Calm   1.0 mph 53 % 0.00 in 44.00 W/m2
19:54 78.0 °F 60.0 °F 29.84 in Calm   1.0 mph 54 % 0.00 in 33.00 W/m2
19:59 77.6 °F 59.7 °F 29.84 in Calm   1.0 mph 54 % 0.00 in 26.00 W/m2
20:04 77.3 °F 59.9 °F 29.84 in Calm   1.0 mph 55 % 0.00 in 21.00 W/m2
20:09 76.8 °F 59.4 °F 29.83 in Calm     55 % 0.00 in 16.00 W/m2
20:15 76.5 °F 59.7 °F 29.83 in Calm   1.0 mph 56 % 0.00 in 14.00 W/m2
20:20 76.2 °F 59.4 °F 29.84 in Calm   1.0 mph 56 % 0.00 in 12.00 W/m2
20:25 75.8 °F 59.0 °F 29.83 in Calm     56 % 0.00 in 9.00 W/m2
20:30 75.5 °F 58.7 °F 29.84 in Calm   1.0 mph 56 % 0.00 in 7.00 W/m2
20:35 75.1 °F 58.3 °F 29.84 in Calm   1.0 mph 56 % 0.00 in 5.00 W/m2
20:40 74.8 °F 58.1 °F 29.83 in Calm   1.0 mph 56 % 0.00 in 0.00 W/m2
20:45 74.6 °F 57.9 °F 29.83 in Calm   1.0 mph 56 % 0.00 in 0.00 W/m2
20:50 74.4 °F 57.7 °F 29.83 in Calm   4.0 mph 56 % 0.00 in 0.00 W/m2
20:55 74.2 °F 57.5 °F 29.83 in Calm   4.0 mph 56 % 0.00 in 0.00 W/m2
21:00 74.1 °F 57.4 °F 29.83 in Calm   1.0 mph 56 % 0.00 in 0.00 W/m2
21:05 74.0 °F 57.3 °F 29.83 in Calm   1.0 mph 56 % 0.00 in 0.00 W/m2
21:10 73.8 °F 57.6 °F 29.83 in Calm   1.0 mph 57 % 0.00 in 0.00 W/m2
21:15 73.7 °F 57.5 °F 29.83 in Calm   1.0 mph 57 % 0.00 in 0.00 W/m2
21:20 73.6 °F 57.4 °F 29.83 in Calm   1.0 mph 57 % 0.00 in 0.00 W/m2
21:25 73.4 °F 57.3 °F 29.83 in Calm   1.0 mph 57 % 0.00 in 0.00 W/m2
21:30 73.3 °F 57.2 °F 29.83 in Calm   1.0 mph 57 % 0.00 in 0.00 W/m2
21:35 73.1 °F 56.5 °F 29.84 in Calm   4.0 mph 56 % 0.00 in 0.00 W/m2
21:40 73.0 °F 56.4 °F 29.84 in Calm   1.0 mph 56 % 0.00 in 0.00 W/m2
21:45 72.8 °F 56.7 °F 29.84 in SW 1.0 mph 2.0 mph 57 % 0.00 in 0.00 W/m2
21:46 72.7 °F 56.6 °F 29.84 in Calm   2.0 mph 57 % 0.00 in 0.00 W/m2
21:51 72.5 °F 56.9 °F 29.84 in SW 1.0 mph 1.0 mph 58 % 0.00 in 0.00 W/m2
21:56 72.3 °F 56.2 °F 29.84 in Calm   2.0 mph 57 % 0.00 in 0.00 W/m2
22:01 72.1 °F 56.0 °F 29.84 in Calm   8.0 mph 57 % 0.00 in 0.00 W/m2
22:06 72.0 °F 56.4 °F 29.84 in Calm   6.0 mph 58 % 0.00 in 0.00 W/m2
22:11 71.8 °F 55.8 °F 29.84 in SSE 8.0 mph 8.0 mph 57 % 0.00 in 0.00 W/m2
22:16 71.7 °F 55.7 °F 29.84 in SSE 4.0 mph 9.0 mph 57 % 0.00 in 0.00 W/m2
22:21 71.5 °F 56.0 °F 29.84 in SSE 5.0 mph 8.0 mph 58 % 0.00 in 0.00 W/m2
22:26 71.4 °F 55.9 °F 29.84 in SSE 4.0 mph 7.0 mph 58 % 0.00 in 0.00 W/m2
22:31 71.3 °F 55.8 °F 29.84 in SE 2.0 mph 7.0 mph 58 % 0.00 in 0.00 W/m2
22:36 71.2 °F 55.7 °F 29.84 in SE 4.0 mph 6.0 mph 58 % 0.00 in 0.00 W/m2
22:41 71.1 °F 56.1 °F 29.84 in Calm   6.0 mph 59 % 0.00 in 0.00 W/m2
22:46 71.1 °F 56.1 °F 29.84 in SE 2.0 mph 4.0 mph 59 % 0.00 in 0.00 W/m2
22:51 71.0 °F 56.4 °F 29.84 in Calm   7.0 mph 60 % 0.00 in 0.00 W/m2
22:56 70.9 °F 56.8 °F 29.83 in SE 1.0 mph 7.0 mph 61 % 0.00 in 0.00 W/m2
23:01 70.9 °F 56.8 °F 29.83 in Calm   2.0 mph 61 % 0.00 in 0.00 W/m2
23:06 70.8 °F 56.7 °F 29.83 in Calm     61 % 0.00 in 0.00 W/m2
23:11 70.7 °F 57.1 °F 29.83 in SE 5.0 mph 6.0 mph 62 % 0.00 in 0.00 W/m2
23:16 70.7 °F 57.1 °F 29.83 in Calm   1.0 mph 62 % 0.00 in 0.00 W/m2
23:21 70.6 °F 57.0 °F 29.83 in SE 4.0 mph 6.0 mph 62 % 0.00 in 0.00 W/m2
23:26 70.6 °F 57.0 °F 29.83 in Calm     62 % 0.00 in 0.00 W/m2
23:31 70.5 °F 56.9 °F 29.83 in Calm     62 % 0.00 in 0.00 W/m2
23:36 70.5 °F 56.9 °F 29.83 in Calm     62 % 0.00 in 0.00 W/m2
23:41 70.5 °F 56.9 °F 29.83 in Calm   1.0 mph 62 % 0.00 in 0.00 W/m2
23:46 70.4 °F 56.8 °F 29.83 in Calm     62 % 0.00 in 0.00 W/m2
23:51 70.4 °F 57.2 °F 29.83 in SE 6.0 mph 6.0 mph 63 % 0.00 in 0.00 W/m2
23:56 70.3 °F 56.7 °F 29.83 in ESE 6.0 mph 6.0 mph 62 % 0.00 in 0.00 W/m2
Juneau County Weather
Compliments of Weather Underground - 4.5 mb
 WU-history PHP script courtesy of   Juneau County Weather.
powered by Cumulus v1.9.3 (1059)
Ambient Weather VWS v14.00
Top Contact Website Map Copyright © 2007 - 2018 Foresthillweather.com Never base important decisions on this or any weather information obtained from the Internet